• In Russia
  • List of Countries
  • For 7 days
  • Water Temperature
  • Satellite Maps
  • Weather Map
  • Weather Widgets
  • user-avatar
    Login

    Hourly Weather Hajdusamson

    Today, 17 August, Thursday

    Time Temperature Precipitation Wind Pressure Humidity
    00:00 +22°C° 0 mm 1 mps 752 mmHg 57%
    01:00 +21°C° 0 mm 1 mps 752 mmHg 59%
    02:00 +21°C° 0 mm 1 mps 752 mmHg 61%
    03:00 +20°C° 0 mm 1 mps 752 mmHg 62%
    04:00 +20°C° 0 mm 1 mps 752 mmHg 64%
    05:00 +20°C° 0 mm 2 mps 752 mmHg 61%
    06:00 +23°C° 0 mm 2 mps 752 mmHg 59%
    07:00 +24°C° 0 mm 2 mps 752 mmHg 55%
    08:00 +26°C° 0 mm 2 mps 752 mmHg 50%
    09:00 +28°C° 0 mm 3 mps 752 mmHg 45%
    10:00 +30°C° 0 mm 3 mps 752 mmHg 41%
    11:00 +31°C° 0 mm 2 mps 752 mmHg 38%
    12:00 +32°C° 0 mm 2 mps 751 mmHg 35%
    13:00 +34°C° 0 mm 2 mps 751 mmHg 32%
    14:00 +34°C° 0 mm 2 mps 751 mmHg 31%
    15:00 +34°C° 0 mm 2 mps 751 mmHg 31%
    16:00 +34°C° 0 mm 2 mps 751 mmHg 31%
    17:00 +31°C° 0 mm 2 mps 751 mmHg 36%
    18:00 +29°C° 0 mm 2 mps 751 mmHg 41%
    19:00 +27°C° 0 mm 2 mps 751 mmHg 46%
    20:00 +27°C° 0 mm 2 mps 751 mmHg 49%
    21:00 +26°C° 0 mm 2 mps 751 mmHg 51%
    22:00 +25°C° 0 mm 2 mps 752 mmHg 53%
    23:00 +24°C° 0 mm 2 mps 752 mmHg 55%

    Tomorrow, 18 August, Friday

    Time Temperature Precipitation Wind Pressure Humidity
    00:00 +24°C° 0 mm 2 mps 752 mmHg 56%
    01:00 +23°C° 0 mm 2 mps 752 mmHg 57%
    02:00 +21°C° 0 mm 2 mps 752 mmHg 58%
    03:00 +21°C° 0 mm 2 mps 752 mmHg 59%
    04:00 +20°C° 0 mm 2 mps 751 mmHg 60%
    05:00 +23°C° 0 mm 2 mps 752 mmHg 57%
    06:00 +24°C° 0 mm 2 mps 752 mmHg 54%
    07:00 +25°C° 0 mm 2 mps 752 mmHg 51%
    08:00 +27°C° 0 mm 2 mps 752 mmHg 46%
    09:00 +30°C° 0 mm 1 mps 752 mmHg 41%
    10:00 +32°C° 0 mm 1 mps 752 mmHg 36%
    11:00 +33°C° 0 mm 1 mps 752 mmHg 33%
    12:00 +34°C° 0 mm 1 mps 751 mmHg 30%
    13:00 +35°C° 0 mm 1 mps 751 mmHg 26%
    14:00 +35°C° 0 mm 1 mps 751 mmHg 26%
    15:00 +35°C° 0 mm 1 mps 750 mmHg 25%
    16:00 +35°C° 0 mm 1 mps 750 mmHg 25%
    17:00 +33°C° 0 mm 1 mps 750 mmHg 29%
    18:00 +30°C° 0 mm 2 mps 750 mmHg 34%
    19:00 +28°C° 0 mm 2 mps 750 mmHg 38%
    20:00 +27°C° 0 mm 2 mps 750 mmHg 40%
    21:00 +26°C° 0 mm 2 mps 750 mmHg 43%
    22:00 +25°C° 0 mm 2 mps 750 mmHg 45%
    23:00 +25°C° 0 mm 2 mps 750 mmHg 47%

    Day after tomorrow, 19 August, Saturday

    Time Temperature Precipitation Wind Pressure Humidity
    00:00 +24°C° 0 mm 2 mps 750 mmHg 49%
    01:00 +24°C° 0 mm 2 mps 750 mmHg 50%
    02:00 +23°C° 0 mm 2 mps 750 mmHg 51%
    03:00 +23°C° 0 mm 2 mps 750 mmHg 52%
    04:00 +23°C° 0 mm 2 mps 750 mmHg 53%
    05:00 +24°C° 0 mm 2 mps 750 mmHg 50%
    06:00 +25°C° 0 mm 2 mps 750 mmHg 47%
    07:00 +27°C° 0 mm 2 mps 750 mmHg 44%
    08:00 +29°C° 0 mm 2 mps 750 mmHg 39%
    09:00 +31°C° 0 mm 2 mps 750 mmHg 34%
    10:00 +34°C° 0 mm 2 mps 749 mmHg 29%
    11:00 +35°C° 0 mm 2 mps 749 mmHg 27%
    12:00 +36°C° 0 mm 2 mps 749 mmHg 24%
    13:00 +37°C° 0 mm 3 mps 748 mmHg 22%
    14:00 +36°C° 0 mm 2 mps 748 mmHg 23%
    15:00 +36°C° 0 mm 2 mps 748 mmHg 25%
    16:00 +35°C° 0 mm 2 mps 747 mmHg 27%
    17:00 +34°C° 0 mm 2 mps 747 mmHg 29%
    18:00 +31°C° 0 mm 1 mps 748 mmHg 31%
    19:00 +30°C° 0 mm 1 mps 748 mmHg 33%
    20:00 +29°C° 0 mm 2 mps 748 mmHg 36%
    21:00 +27°C° 0 mm 2 mps 748 mmHg 40%
    22:00 +26°C° 0 mm 3 mps 748 mmHg 43%
    23:00 +25°C° 0 mm 3 mps 748 mmHg 49%

    20 August, Sunday

    Time Temperature Precipitation Wind Pressure Humidity
    00:00 +23°C° 0 mm 4 mps 748 mmHg 56%
    01:00 +22°C° 0 mm 4 mps 748 mmHg 62%
    02:00 +21°C° 0.1 mm 4 mps 748 mmHg 66%
    03:00 +20°C° 0.1 mm 4 mps 748 mmHg 70%
    04:00 +20°C° 0.1 mm 3 mps 748 mmHg 74%
    05:00 +20°C° 0.1 mm 3 mps 748 mmHg 74%
    06:00 +21°C° 0.1 mm 3 mps 749 mmHg 74%
    07:00 +21°C° 0.1 mm 4 mps 749 mmHg 74%
    08:00 +21°C° 0.5 mm 3 mps 749 mmHg 74%
    09:00 +22°C° 0.5 mm 3 mps 749 mmHg 74%
    10:00 +22°C° 0.5 mm 3 mps 749 mmHg 75%
    11:00 +21°C° 0.6 mm 3 mps 749 mmHg 78%
    12:00 +21°C° 0.6 mm 4 mps 750 mmHg 82%
    13:00 +20°C° 0.6 mm 4 mps 750 mmHg 85%
    14:00 +19°C° 0.4 mm 5 mps 750 mmHg 84%
    15:00 +17°C° 0.4 mm 5 mps 750 mmHg 83%
    16:00 +16°C° 0.4 mm 6 mps 750 mmHg 83%
    17:00 +16°C° 0.1 mm 5 mps 750 mmHg 82%
    18:00 +15°C° 0.1 mm 5 mps 751 mmHg 82%
    19:00 +15°C° 0.1 mm 4 mps 751 mmHg 81%
    20:00 +15°C° 0 mm 4 mps 751 mmHg 81%
    21:00 +14°C° 0 mm 4 mps 751 mmHg 81%
    22:00 +14°C° 0 mm 4 mps 751 mmHg 81%
    23:00 +14°C° 0 mm 4 mps 751 mmHg 82%

    21 August, Monday

    Time Temperature Precipitation Wind Pressure Humidity
    00:00 +13°C° 0 mm 4 mps 751 mmHg 83%
    01:00 +13°C° 0 mm 4 mps 751 mmHg 84%
    02:00 +13°C° 0 mm 4 mps 751 mmHg 84%
    03:00 +13°C° 0 mm 4 mps 751 mmHg 85%
    04:00 +12°C° 0 mm 4 mps 751 mmHg 85%
    05:00 +14°C° 0 mm 4 mps 751 mmHg 79%
    06:00 +15°C° 0 mm 5 mps 751 mmHg 73%
    07:00 +16°C° 0 mm 5 mps 751 mmHg 67%
    08:00 +19°C° 0 mm 6 mps 751 mmHg 59%
    09:00 +21°C° 0 mm 6 mps 751 mmHg 52%
    10:00 +23°C° 0 mm 6 mps 751 mmHg 45%
    11:00 +24°C° 0 mm 6 mps 751 mmHg 42%
    12:00 +24°C° 0 mm 6 mps 750 mmHg 39%
    13:00 +26°C° 0 mm 6 mps 750 mmHg 35%
    14:00 +26°C° 0 mm 5 mps 750 mmHg 36%
    15:00 +26°C° 0 mm 5 mps 750 mmHg 37%
    16:00 +26°C° 0 mm 5 mps 750 mmHg 37%
    17:00 +23°C° 0 mm 4 mps 750 mmHg 43%
    18:00 +21°C° 0 mm 4 mps 750 mmHg 49%
    19:00 +19°C° 0 mm 3 mps 751 mmHg 54%
    20:00 +18°C° 0 mm 3 mps 751 mmHg 59%
    21:00 +17°C° 0 mm 3 mps 751 mmHg 63%
    22:00 +16°C° 0 mm 2 mps 751 mmHg 67%
    23:00 +16°C° 0 mm 2 mps 751 mmHg 69%

    22 August, Tuesday

    Time Temperature Precipitation Wind Pressure Humidity
    00:00 +15°C° 0 mm 2 mps 751 mmHg 71%
    01:00 +15°C° 0 mm 2 mps 751 mmHg 73%
    02:00 +15°C° 0 mm 2 mps 751 mmHg 74%
    03:00 +14°C° 0 mm 2 mps 751 mmHg 76%
    04:00 +14°C° 0 mm 2 mps 751 mmHg 78%
    05:00 +15°C° 0 mm 2 mps 751 mmHg 72%
    06:00 +17°C° 0 mm 2 mps 752 mmHg 67%
    07:00 +18°C° 0 mm 2 mps 752 mmHg 61%
    08:00 +20°C° 0 mm 2 mps 751 mmHg 54%
    09:00 +23°C° 0 mm 2 mps 751 mmHg 47%
    10:00 +25°C° 0 mm 2 mps 751 mmHg 40%
    11:00 +25°C° 0 mm 3 mps 751 mmHg 37%
    12:00 +26°C° 0 mm 3 mps 750 mmHg 35%
    13:00 +27°C° 0 mm 3 mps 750 mmHg 32%
    14:00 +28°C° 0 mm 3 mps 750 mmHg 31%
    15:00 +28°C° 0 mm 3 mps 749 mmHg 30%
    16:00 +28°C° 0 mm 3 mps 749 mmHg 29%
    17:00 +26°C° 0 mm 2 mps 749 mmHg 34%
    18:00 +24°C° 0 mm 1 mps 749 mmHg 38%
    19:00 +21°C° 0 mm 1 mps 749 mmHg 43%
    20:00 +21°C° 0 mm 1 mps 749 mmHg 43%
    21:00 +19°C° 0 mm 2 mps 749 mmHg 44%
    22:00 +19°C° 0 mm 2 mps 749 mmHg 45%
    23:00 +18°C° 0 mm 2 mps 749 mmHg 46%
    Show more